Погода в Горки

Хотите узнать прогноз погоды в Горки? Тогда Вам сюда: Погода в Горки

Поиск расширенной информации на нашем сайте:

Полезная информация:

Новости сайта



02.01.2020
Опубликован Долгосрочный прогноз погоды по городам России и ближнего зарубежья на январь 2020 года.
Карты: Прогноз на январь и февраль 2020 года, Сравнение прогнозируемой аномалии приземной температуры воздуха на январь 2020 года по разным моделям.




Погода в Горки - сегодня

Время (UTC), дата Ветер
(°,м/с) 
Видим.   Явления Облачность Т
(°С)
Тd
(°С)
f(%) Тe
(°С)
Pmin
(гПа)
dP
(гПа)
Po
(мм)
O2
(г/м3)
Тmin Tmax R s Состояние
почвы
12 22.10.21 250 (З) 10-14{19}  18000 м  {ливн. осадки}  8/6 600 м средняя 
[Sc|Ac trans]
+9.6 +1.2 56 +7  1002.5  1.9  734  285           
15 22.10.21 240 (ЮЗ) 8-13{16}  20000 м    9/5 600 м средняя 
[Sc|Ac trans]
+8.2 -0.5 54 +6  1004.2  1.6  735  288           
18 22.10.21 220 (ЮЗ) 6{14}  20000 м    9/0 средняя 
[Ac und]
+7.4 +0.3 61 +5  1004.8  0.5  735  288    +11  0.0     
21 22.10.21 230 (ЮЗ) 6{10}  20000 м    10/0 средняя 
[Ac As]
+7.5 +0.9 63 +5  1004.2  -0.6  735  288           
00 23.10.21 230 (ЮЗ) 6-10{14}  18000 м  {ливн. осадки}  9/0 средняя 
[Ac und]
+6.2 +1.8 73 +4  1003.5  -0.8  734  289           
03 23.10.21 210 (ЮЗ) 7-10{12}  17000 м    6/0 средняя 
[Ac und]
+5.5 +0.6 71 +3  1002.9  -0.7  734  290      0.0     
06 23.10.21 260 (З) 5{11}  20000 м  {ливн. осадки}  4/0 средняя 
[Ac trans]
+4.8 +2.1 83 +3  1005.4  2.4  736  291  +4.5    0.0     
09 23.10.21 250 (З) 8-12{13}  20000 м    8/4 600 м средняя 
[Sc|Ac trans]
+6.8 +1.3 68 +4  1007.5  2.2  737  290           
12 23.10.21 280 (З) 7-11{13}  9000 м  слаб. ливневой дождь  8/6 400 м кучево-дожд., средняя 
[Cb cap|Ac trans]
+5.7 +2.7 81 +3  1009.5  1.9  739  291      0.0     
15 23.10.21 250 (З) 5{12}  20000 м    6/6 600 м 
[Sc]
+6.1 +2.1 75 +4  1011  1.5  740  291           
18 23.10.21 240 (ЮЗ) 6{10}  18000 м    9/5 600 м средняя 
[Sc|Ac und]
+5 +2.3 83 +2  1012.5  1.4  741  293    +7.7  0.0     
21 23.10.21 270 (З) 8-10{13}  20000 м    10/4 600 м средняя 
[Sc|Ac As]
+5.6 +2.8 82 +3  1013.6  1.1  742  292           
00 24.10.21 310 (СЗ) 4{11}  8000 м  слаб. ливневой дождь  10/8 400 м кучево-дожд., средняя 
[Cb cap|Ac As]
+3.8 +2.7 93 +2  1016.1  2.3  743  295           
03 24.10.21 300 (СЗ) 5{10}  20000 м  {ливн. осадки}  10/6 600 м средняя 
[Sc|Ac As]
+3.7 +1.8 87 +1  1018.1  1.9  745  296      0.3     
06 24.10.21 320 (СЗ) 6{10}  20000 м  {ливн. осадки}  8/5 600 м средняя 
[Sc|Ac und]
+3.4 +1.3 86 +1  1020.7  2.5  747  297  +3.2    0.3     
09 24.10.21 340 (С) 8-11{12}  20000 м  {ливн. осадки}  8/6 300 м кучево-дожд., средняя 
[Cb cap|Ac und]
+3.9 +0.5 78 +1  1023.6  2.9  749  297           
12 24.10.21 300 (СЗ) 5{12}  20000 м  {ливн. осадки}  6/6 600 м 
[Sc]
+4.1 -0.2 74 +2  1025.9  2.2  751  298           
15 24.10.21 310 (СЗ) 5{12}  20000 м    8/5 600 м средняя 
[Sc|Ac und]
+2.3 -1.4 76 1028  1.9  752  301           
18 24.10.21 300 (СЗ) 18000 м    6/0 средняя 
[Ac und]
+1.1 -2.1 79 1029.3  1.2  753  302    +4.6  0.0     
21 24.10.21 280 (З) 19000 м    8/0 средняя 
[Ac und]
+0.2 -1.9 86 -1  1030.5  1.1  754  304           
00 25.10.21 290 (З) 17000 м    ясно 
-1.3 -2.8 90 -2  1031.9  1.2  755  306           
03 25.10.21 тихо ()   13000 м    3/0 верхняя 
[Ci fib]
-2.8 -3.4 96 -3  1032.4  0.3  755  308           
06 25.10.21 200 (Ю) 12000 м    3/0 верхняя 
[Ci fib]
-2.4 -2.9 96 -2  1033  0.6  755  307  -3.2         
09 25.10.21 240 (ЮЗ) 11000 м    3/1 600 м верхняя 
[Cu hum|Ci fib]
+3.9 +0.8 80 +2  1032.4  0.1  755  300           
12 25.10.21 220 (ЮЗ) 20000 м    3/3 600 м 
[Cu hum]
+6.5 +0.5 65 +4  1030.7  -1.4  754  297           
Время (UTC), дата Ветер
(°,м/с) 
Видим.   Явления Облачность Т
(°С)
Тd
(°С)
f(%) Тe
(°С)
Pmin
(гПа)
dP
(гПа)
Po
(мм)
O2
(г/м3)
Тmin Tmax R s Состояние
почвы

Для получения пояснительной информации подведите курсор к названию столбца.

ПОГОДА в Горки - архив

Всё, что Вы хотите узнать о погоде в Горки - удобно и подробно!

Выберите нужную дату (начиная с 1 января 2019* года) и нажмите кнопку "Найти".
Будут отображены архивные сводки погоды по пункту Горки, начиная с указанной даты.


Отображать данные в формате CSV (для использования в таблицах Excel)


Внимание! Наш архив погоды предназначен исключительно для личного некоммерческого использования в познавательных целях. Если Вам необходимы официальные справки о состоянии погоды (для производственных, юридических, коммерческих и т.п. целей), обращайтесь в органы Росгидромета.

*Примечание: данная дата относится к архиву по метеостанциям СССР (Россия, СНГ, Балтия).
Архив по метеостанциям Зарубежной Европы и Азии (кроме Китая) хранится 10 дней, по другим регионам земного шара (Китай, Африка, Америка, Австралия, Океания) - 1 день.

Горки - район местоположения метеостанции


Название, широта, долгота, высота метеостанции:
Горки 54.3°ш. 30.9°д. 205 м над ур. моря [Беларусь]

Дополнительная информация

В oтличие oт бoльшинства пoгoдных сайтoв мы публикуем пoдрoбную метеoинфoрмацию в детальнoм прoфессиoнальнoм фoрмате.

Характеристики температуры и влажнoсти вoздуха измеряются на высoте 2 м в тени вдали oт зданий и деревьев.
Скoрoсть ветра измеряется на высoте 10 м (на урoвне рoста челoвека скoрoсть ветра ниже в 1.5-2 раза). Если метеoстанция нахoдится в гoрoде или в лесу, тo скoрoсть ветра занижена на 2-4 м/с пo сравнению с oткрытым местoм. Скoрoсть ветра над акватoриями крупных рек и oзёр, а также на вершинах хoлмoв на 2-5 м/с выше, чем в oбычных услoвиях.
Атмoсфернoе давление в разных тoчках местнoсти мoжет значительнo oтличаться oт давления на метеoстанции, в зависимoсти oт услoвий рельефа (при пoдъёме на 10 м давление пoнижается примернo на 1 мм рт.ст.).